Dewpoint
56 56 56 56 56 56 56 57 57 58 57 56 57 58 58 58 58 54 52 55 56 59 58 54 54 52 50 47 45 41 37 34 35 35 35 43 47 50 55 55 58 58 58 60 64
56 56 56 56 56 56 56 57 57 58 57 57 57 57 58 58 52 50 55 59 60 57 53 51 49 51 48 45 44 41 38 36 34 34 35 41 47 51 54 55 56 56 60 64 63
55 56 56 56 55 55 56 56 57 57 58 57 57 57 57 55 47 47 58 59 59 58 54 53 52 50 46 43 42 40 37 38 37 38 36 38 47 52 53 53 55 55 60 63 63
55 55 56 56 55 55 55 56 57 57 58 57 56 56 54 48 38 47 56 58 57 56 53 52 50 47 45 41 41 38 40 39 40 37 36 39 47 51 53 52 53 57 61 62 62
54 55 55 55 55 55 55 55 56 57 56 55 55 54 48 40 41 51 55 55 52 52 50 49 47 47 44 42 39 38 37 38 37 36 35 37 44 48 51 55 57 59 60 60 60
54 54 54 54 55 55 54 55 56 57 56 54 54 53 43 36 46 47 51 51 52 50 49 49 48 49 44 42 38 38 37 36 36 36 35 40 43 46 52 56 57 58 58 60 60
54 54 54 54 54 54 54 54 55 57 55 53 51 43 40 40 45 47 48 49 52 51 48 51 50 49 47 39 41 39 35 36 34 34 35 40 41 41 54 55 54 56 58 59 58
54 54 54 54 54 54 54 55 56 57 53 53 48 41 38 48 45 45 47 48 50 52 50 50 49 46 46 47 35 34 32 31 31 31 33 40 37 45 54 54 54 54 56 57 57
54 54 54 54 54 54 54 55 56 51 53 52 38 38 37 49 42 44 46 47 48 49 49 48 47 43 43 42 36 30 28 27 28 31 33 37 37 47 53 54 53 54 55 56 57
54 54 54 54 54 55 54 52 51 45 38 35 35 34 37 39 44 45 45 45 47 45 45 43 42 39 38 37 33 30 27 26 26 28 32 34 35 48 52 52 52 53 54 55 57
53 53 54 54 54 54 43 31 27 29 33 33 33 35 35 41 44 46 47 46 46 41 38 41 36 33 35 36 34 30 27 26 26 27 31 32 35 45 50 52 51 52 53 55 56
53 53 53 54 53 51 40 31 32 34 27 31 33 32 35 40 39 42 45 42 41 37 39 36 32 35 37 37 36 33 28 26 25 27 31 34 37 36 47 50 51 51 53 55 55
52 53 53 53 51 40 39 40 43 41 27 24 30 32 34 39 36 38 43 42 39 37 36 34 35 37 35 33 31 29 29 26 24 28 27 33 35 37 38 42 49 52 53 54 55
52 53 53 51 39 40 36 42 43 36 24 17 23 28 35 37 31 39 43 37 36 36 37 34 37 36 35 31 30 28 29 28 25 32 30 27 29 27 34 35 35 48 51 52 53
52 52 52 45 37 36 39 42 41 30 5 14 21 31 32 29 27 28 39 31 28 37 35 35 36 36 32 26 27 27 29 26 27 26 28 25 29 25 28 34 36 35 46 50 52
53 51 50 41 39 40 41 39 35 22 1 19 25 24 24 25 26 29 27 30 31 26 28 30 33 35 37 35 28 29 27 28 26 31 30 23 25 27 24 31 32 35 36 45 50
52 50 44 40 34 42 41 36 24 13 17 13 17 24 24 20 23 26 25 24 25 21 22 24 29 31 39 30 30 28 29 27 24 20 24 17 24 26 23 26 32 33 37 38 47
51 44 43 40 43 42 37 29 13 13 13 19 24 23 21 21 21 24 24 20 24 22 19 20 19 27 34 33 28 29 27 24 17 17 19 21 20 25 25 25 26 28 33 37 37
46 41 40 39 42 38 33 22 18 13 18 21 19 20 18 21 23 22 22 19 20 25 19 19 19 27 29 31 30 26 27 24 19 17 17 19 18 18 20 22 26 28 28 33 34
39 35 36 40 40 35 31 28 19 22 26 25 15 15 15 18 18 20 19 21 24 25 23 21 17 24 27 30 28 27 27 24 23 13 14 16 14 24 20 19 22 27 29 29 31
36 30 37 41 37 35 28 26 22 27 27 24 20 18 17 17 18 20 17 22 25 26 24 21 18 19 24 25 27 24 24 21 19 19 15 10 18 25 24 22 22 26 29 30 32
30 23 38 40 29 28 25 22 31 26 27 26 24 22 19 19 20 21 20 20 27 26 22 22 19 19 18 22 27 23 20 21 21 14 17 17 21 24 25 27 27 28 29 32 33
31 29 36 36 24 26 26 25 26 25 24 24 24 24 23 21 18 22 24 27 29 27 22 24 19 13 15 17 21 23 24 18 19 20 16 16 19 18 23 27 31 31 31 32 33
32 27 29 33 29 26 24 22 22 27 24 25 23 24 24 22 22 19 25 28 30 30 33 26 20 15 15 14 20 21 21 22 19 19 15 18 18 15 17 22 25 29 31 32 33
31 27 27 20 24 25 23 21 21 19 26 25 22 23 23 20 20 20 22 27 30 32 29 23 18 19 19 17 19 19 17 21 19 17 15 14 15 15 17 18 21 27 31 31 31
27 24 27 25 23 24 26 23 22 22 23 22 23 19 23 20 19 18 21 25 23 28 27 26 16 19 15 17 18 18 20 19 20 20 17 17 16 16 16 17 25 27 30 31 31
33 31 26 25 22 20 20 21 21 23 22 19 24 20 22 23 22 23 24 22 22 27 25 24 19 15 7 15 14 9 14 17 19 20 19 17 17 17 17 18 21 23 29 30 31
Lifted_Index
11 11 11 11 11 11 10 10 9 8 7 5 4 3 2 2 1 1 1 0 -0 -0 0 0 0 0 1 1 2 3 4 4 3 2 1 0 -2 -3 -3 -3 -3 -2 -2 -2 -2
11 11 11 11 11 11 10 10 9 8 7 5 4 3 2 2 2 1 0 -0 -1 -1 -0 0 -0 -0 0 1 2 3 4 4 3 2 1 0 -1 -2 -3 -3 -3 -3 -3 -3 -2
11 11 11 11 11 11 10 10 9 8 7 5 4 3 3 2 2 1 0 -1 -1 -0 0 0 -0 -0 -0 0 1 3 4 4 3 2 1 0 -1 -2 -3 -3 -3 -3 -3 -3 -3
12 12 11 11 11 11 11 10 9 8 7 6 5 4 3 3 2 2 1 -0 -0 0 0 0 -0 -0 -0 0 1 2 3 3 3 2 1 0 -1 -2 -3 -3 -3 -3 -4 -4 -3
12 12 11 11 11 11 11 10 9 8 7 6 6 5 4 3 3 3 2 1 0 1 1 1 0 -0 -0 -0 0 2 2 3 3 2 1 0 -1 -2 -3 -3 -3 -3 -4 -4 -4
12 12 12 11 11 11 11 10 9 8 8 7 7 6 5 4 4 4 2 1 1 1 1 1 0 -0 -0 -0 0 1 2 3 3 2 2 1 -1 -2 -3 -3 -3 -3 -3 -4 -4
11 11 11 11 11 11 11 10 9 8 9 9 8 6 5 5 5 4 3 2 1 1 1 1 0 0 -0 -0 0 1 2 3 3 3 2 1 -0 -1 -2 -2 -3 -3 -3 -4 -4
11 11 11 11 11 11 10 10 9 9 9 9 8 7 5 5 5 4 3 2 2 2 1 1 1 0 0 0 1 1 2 3 3 3 2 1 0 -1 -2 -2 -3 -3 -3 -4 -4
11 11 11 11 11 11 10 10 10 10 10 9 8 7 6 5 5 5 4 3 2 2 2 1 1 1 1 1 1 1 2 3 4 3 3 2 1 -0 -1 -2 -3 -3 -3 -4 -4
11 11 11 11 11 11 11 11 11 11 10 9 8 7 6 5 5 5 4 3 3 2 2 2 1 1 1 1 1 1 1 2 3 4 3 2 1 0 -1 -2 -2 -3 -3 -3 -3
12 12 11 11 11 11 12 13 12 11 10 9 8 7 6 6 5 5 4 4 3 3 2 2 1 1 1 1 1 1 1 2 3 3 3 2 1 0 -1 -2 -2 -2 -3 -3 -3
12 12 11 11 12 13 13 13 13 12 10 9 8 8 7 6 6 5 5 4 4 3 2 2 2 1 1 1 1 1 1 2 3 3 2 2 1 0 -1 -2 -2 -2 -2 -3 -3
12 12 12 12 13 13 14 13 13 12 10 9 9 8 8 7 6 5 5 4 4 3 3 2 2 2 2 2 2 1 1 2 3 3 2 1 1 0 -1 -1 -2 -2 -2 -2 -2
12 12 12 13 13 13 14 14 13 11 8 8 8 8 8 8 7 6 6 5 4 3 3 3 2 2 2 2 2 2 1 2 2 2 2 1 1 0 -0 -1 -1 -1 -1 -1 -1
11 12 12 13 13 13 14 14 12 9 6 7 8 9 8 8 7 7 6 6 4 3 3 3 2 2 2 2 2 2 1 2 2 2 2 1 1 1 0 -0 -0 -0 0 0 -0
11 11 12 12 12 13 14 13 10 7 5 6 8 8 8 8 8 8 7 6 5 4 3 3 3 2 2 2 2 2 1 1 2 2 2 1 1 1 1 1 1 1 1 1 1
11 12 12 12 12 12 12 11 7 6 6 7 8 8 8 8 8 8 7 7 6 5 4 3 3 2 2 2 2 2 1 1 1 1 1 1 1 2 2 2 2 2 3 2 2
11 12 12 12 12 11 10 8 6 5 7 8 8 7 7 7 7 7 7 7 6 5 4 3 3 3 2 2 1 1 1 1 1 1 2 2 2 2 2 3 3 4 4 4 3
11 11 11 12 11 11 9 6 5 6 7 7 7 7 6 7 7 7 7 7 7 6 5 4 4 3 2 2 1 1 1 1 1 1 1 2 3 3 3 4 4 5 5 5 5
11 10 11 11 11 10 7 6 6 7 8 7 6 6 6 6 6 6 7 7 7 7 6 5 4 4 3 2 1 1 1 1 1 1 1 2 3 3 4 4 4 5 5 6 6
9 9 10 11 10 8 6 6 7 8 8 7 7 6 6 6 6 6 6 7 8 7 7 6 5 4 3 3 2 1 1 1 1 1 1 1 2 3 4 5 5 5 6 7 7
8 9 10 10 9 7 6 6 7 8 8 8 7 7 7 7 6 6 7 8 8 8 8 7 6 4 4 3 3 2 1 1 1 1 1 2 2 4 5 5 5 6 7 7 8
7 8 9 9 7 6 6 7 7 8 8 8 8 8 7 7 7 7 7 8 9 8 8 7 6 4 3 4 3 2 2 1 1 1 2 3 3 5 5 6 6 7 8 8 8
8 8 8 8 7 7 7 7 7 7 8 8 8 8 7 7 7 7 7 8 9 9 8 8 6 5 4 4 5 4 3 3 2 2 3 4 4 5 6 7 7 8 9 9 9
8 8 8 8 7 7 7 7 7 7 8 8 8 7 7 7 6 7 8 8 8 9 9 8 6 5 5 6 6 5 4 4 4 4 4 4 5 5 6 7 8 9 9 10 9
8 8 8 8 8 8 8 8 7 7 8 8 8 8 7 7 7 8 8 9 9 9 9 8 6 5 5 6 6 5 5 5 5 5 5 4 4 5 6 7 8 9 9 9 9
8 8 9 9 9 8 8 8 8 8 8 8 8 8 8 8 8 9 9 9 9 9 9 8 7 5 5 5 5 4 4 5 5 5 5 4 4 5 6 7 8 8 9 8 8